When you browse on this site, cookies collect data to enhance your experience and personalize the content and advertising you see.
Visit our Privacy Policy to learn more. By continuing to use the site, you agree to this use of cookies and data.
  • en France
  • Liste des pays
  • À 7 jours
  • Température de l'eau
  • Carte satellitaire
  • Carte météo
  • Widgets météo
  • user-avatar
    Se connecter

    Météo par heure à Shumovo

    Ce jour, 23 Avril, Mardi

    Heure Température Précipitation Vent Pression Humidité
    00:00 +10°C° 0 mm 1 m/s 754 mmHg 52%
    01:00 +10°C° 0 mm 1 m/s 754 mmHg 52%
    02:00 +9°C° 0 mm 0 m/s 754 mmHg 52%
    03:00 +9°C° 0 mm 0 m/s 754 mmHg 53%
    04:00 +9°C° 0 mm 1 m/s 754 mmHg 55%
    05:00 +9°C° 0 mm 1 m/s 755 mmHg 56%
    06:00 +11°C° 0 mm 1 m/s 755 mmHg 53%
    07:00 +13°C° 0 mm 1 m/s 755 mmHg 49%
    08:00 +14°C° 0 mm 1 m/s 755 mmHg 46%
    09:00 +16°C° 0 mm 1 m/s 755 mmHg 41%
    10:00 +17°C° 0 mm 2 m/s 755 mmHg 37%
    11:00 +19°C° 0 mm 2 m/s 755 mmHg 33%
    12:00 +19°C° 0 mm 2 m/s 755 mmHg 33%
    13:00 +19°C° 0 mm 2 m/s 755 mmHg 33%
    14:00 +19°C° 0 mm 3 m/s 754 mmHg 34%
    15:00 +19°C° 0 mm 2 m/s 754 mmHg 37%
    16:00 +19°C° 0 mm 2 m/s 754 mmHg 40%
    17:00 +19°C° 0 mm 2 m/s 754 mmHg 43%
    18:00 +17°C° 0 mm 2 m/s 754 mmHg 46%
    19:00 +15°C° 0 mm 2 m/s 754 mmHg 50%
    20:00 +14°C° 0 mm 2 m/s 754 mmHg 53%
    21:00 +13°C° 0 mm 2 m/s 754 mmHg 55%
    22:00 +13°C° 0 mm 2 m/s 754 mmHg 57%
    23:00 +12°C° 0 mm 2 m/s 754 mmHg 59%

    Demain, 24 Avril, Mercredi

    Heure Température Précipitation Vent Pression Humidité
    00:00 +12°C° 0 mm 2 m/s 755 mmHg 60%
    01:00 +12°C° 0 mm 2 m/s 755 mmHg 61%
    02:00 +12°C° 0 mm 2 m/s 755 mmHg 61%
    03:00 +12°C° 0 mm 2 m/s 755 mmHg 64%
    04:00 +10°C° 0 mm 2 m/s 755 mmHg 67%
    05:00 +10°C° 0 mm 2 m/s 755 mmHg 70%
    06:00 +12°C° 0 mm 2 m/s 755 mmHg 65%
    07:00 +14°C° 0 mm 2 m/s 755 mmHg 60%
    08:00 +16°C° 0 mm 3 m/s 755 mmHg 55%
    09:00 +17°C° 0 mm 3 m/s 755 mmHg 50%
    10:00 +19°C° 0 mm 3 m/s 755 mmHg 44%
    11:00 +20°C° 0 mm 4 m/s 755 mmHg 39%
    12:00 +21°C° 0 mm 3 m/s 755 mmHg 38%
    13:00 +21°C° 0 mm 3 m/s 755 mmHg 37%
    14:00 +22°C° 0 mm 3 m/s 754 mmHg 36%
    15:00 +21°C° 0 mm 3 m/s 754 mmHg 39%
    16:00 +21°C° 0 mm 2 m/s 754 mmHg 42%
    17:00 +21°C° 0 mm 2 m/s 754 mmHg 45%
    18:00 +19°C° 0 mm 2 m/s 754 mmHg 48%
    19:00 +17°C° 0 mm 2 m/s 754 mmHg 52%
    20:00 +15°C° 0 mm 2 m/s 754 mmHg 56%
    21:00 +15°C° 0 mm 2 m/s 754 mmHg 57%
    22:00 +14°C° 0 mm 2 m/s 754 mmHg 59%
    23:00 +14°C° 0 mm 1 m/s 754 mmHg 61%

    Après-demain, 25 Avril, Jeudi

    Heure Température Précipitation Vent Pression Humidité
    00:00 +13°C° 0 mm 1 m/s 754 mmHg 62%
    01:00 +13°C° 0 mm 1 m/s 754 mmHg 64%
    02:00 +12°C° 0 mm 1 m/s 754 mmHg 65%
    03:00 +12°C° 0 mm 1 m/s 754 mmHg 67%
    04:00 +12°C° 0 mm 1 m/s 754 mmHg 68%
    05:00 +11°C° 0 mm 1 m/s 755 mmHg 70%
    06:00 +13°C° 0 mm 1 m/s 755 mmHg 64%
    07:00 +15°C° 0 mm 1 m/s 755 mmHg 59%
    08:00 +17°C° 0 mm 2 m/s 755 mmHg 53%
    09:00 +18°C° 0 mm 2 m/s 755 mmHg 49%
    10:00 +20°C° 0 mm 2 m/s 754 mmHg 44%
    11:00 +21°C° 0 mm 2 m/s 754 mmHg 40%
    12:00 +23°C° 0 mm 2 m/s 754 mmHg 38%
    13:00 +23°C° 0 mm 2 m/s 754 mmHg 37%
    14:00 +24°C° 0 mm 1 m/s 754 mmHg 35%
    15:00 +24°C° 0 mm 1 m/s 753 mmHg 37%
    16:00 +24°C° 0 mm 1 m/s 753 mmHg 39%
    17:00 +23°C° 0 mm 1 m/s 753 mmHg 41%
    18:00 +22°C° 0 mm 1 m/s 753 mmHg 45%
    19:00 +20°C° 0 mm 1 m/s 753 mmHg 49%
    20:00 +16°C° 0 mm 0 m/s 753 mmHg 52%
    21:00 +16°C° 0 mm 0 m/s 753 mmHg 54%
    22:00 +15°C° 0 mm 0 m/s 753 mmHg 55%
    23:00 +15°C° 0 mm 0 m/s 753 mmHg 57%

    26 Avril, Vendredi

    Heure Température Précipitation Vent Pression Humidité
    00:00 +14°C° 0.3 mm 0 m/s 753 mmHg 61%
    01:00 +13°C° 0.3 mm 0 m/s 753 mmHg 66%
    02:00 +13°C° 0.3 mm 0 m/s 753 mmHg 70%
    03:00 +14°C° 0.6 mm 1 m/s 753 mmHg 72%
    04:00 +14°C° 0.6 mm 1 m/s 753 mmHg 75%
    05:00 +14°C° 0.6 mm 1 m/s 752 mmHg 77%
    06:00 +15°C° 0.3 mm 1 m/s 753 mmHg 74%
    07:00 +16°C° 0.3 mm 1 m/s 753 mmHg 71%
    08:00 +18°C° 0.3 mm 1 m/s 753 mmHg 67%
    09:00 +18°C° 0 mm 2 m/s 752 mmHg 62%
    10:00 +19°C° 0 mm 2 m/s 752 mmHg 57%
    11:00 +20°C° 0 mm 2 m/s 752 mmHg 52%
    12:00 +21°C° 0.6 mm 2 m/s 752 mmHg 50%
    13:00 +21°C° 0.6 mm 2 m/s 752 mmHg 48%
    14:00 +23°C° 0.6 mm 2 m/s 751 mmHg 46%
    15:00 +21°C° 0.3 mm 2 m/s 751 mmHg 50%
    16:00 +21°C° 0.3 mm 2 m/s 751 mmHg 55%
    17:00 +20°C° 0.3 mm 2 m/s 751 mmHg 59%
    18:00 +19°C° 0.2 mm 1 m/s 750 mmHg 63%
    19:00 +18°C° 0.2 mm 1 m/s 750 mmHg 67%
    20:00 +14°C° 0.2 mm 0 m/s 750 mmHg 70%
    21:00 +14°C° 0 mm 0 m/s 750 mmHg 71%
    22:00 +15°C° 0 mm 1 m/s 750 mmHg 72%
    23:00 +14°C° 0 mm 1 m/s 750 mmHg 73%

    27 Avril, Samedi

    Heure Température Précipitation Vent Pression Humidité
    00:00 +14°C° 0 mm 1 m/s 750 mmHg 73%
    01:00 +14°C° 0 mm 1 m/s 750 mmHg 73%
    02:00 +14°C° 0 mm 2 m/s 749 mmHg 73%
    03:00 +14°C° 0 mm 2 m/s 749 mmHg 76%
    04:00 +14°C° 0 mm 2 m/s 749 mmHg 78%
    05:00 +13°C° 0 mm 2 m/s 749 mmHg 80%
    06:00 +15°C° 0 mm 2 m/s 749 mmHg 75%
    07:00 +16°C° 0 mm 3 m/s 748 mmHg 71%
    08:00 +18°C° 0 mm 3 m/s 748 mmHg 67%
    09:00 +19°C° 0 mm 4 m/s 748 mmHg 60%
    10:00 +20°C° 0 mm 4 m/s 748 mmHg 54%
    11:00 +21°C° 0 mm 5 m/s 747 mmHg 48%
    12:00 +21°C° 0 mm 5 m/s 747 mmHg 48%
    13:00 +21°C° 0 mm 5 m/s 747 mmHg 48%
    14:00 +22°C° 0 mm 5 m/s 746 mmHg 48%
    15:00 +21°C° 0 mm 5 m/s 746 mmHg 51%
    16:00 +20°C° 0 mm 4 m/s 745 mmHg 55%
    17:00 +20°C° 0 mm 4 m/s 745 mmHg 59%
    18:00 +18°C° 0 mm 4 m/s 745 mmHg 63%
    19:00 +17°C° 0 mm 3 m/s 745 mmHg 68%
    20:00 +16°C° 0 mm 3 m/s 745 mmHg 73%
    21:00 +14°C° 0.1 mm 3 m/s 745 mmHg 76%
    22:00 +13°C° 0.1 mm 3 m/s 744 mmHg 78%
    23:00 +13°C° 0.1 mm 3 m/s 744 mmHg 81%

    28 Avril, Dimanche

    Heure Température Précipitation Vent Pression Humidité
    00:00 +13°C° 0.7 mm 3 m/s 744 mmHg 82%
    01:00 +13°C° 0.7 mm 4 m/s 743 mmHg 84%
    02:00 +13°C° 0.7 mm 5 m/s 743 mmHg 86%
    03:00 +13°C° 0.4 mm 4 m/s 743 mmHg 87%
    04:00 +13°C° 0.4 mm 4 m/s 743 mmHg 87%
    05:00 +13°C° 0.4 mm 3 m/s 742 mmHg 88%
    06:00 +13°C° 0.3 mm 4 m/s 742 mmHg 85%
    07:00 +13°C° 0.3 mm 4 m/s 742 mmHg 82%
    08:00 +14°C° 0.3 mm 4 m/s 742 mmHg 79%
    09:00 +16°C° 0.1 mm 5 m/s 742 mmHg 73%
    10:00 +17°C° 0.1 mm 5 m/s 742 mmHg 67%
    11:00 +20°C° 0.1 mm 6 m/s 742 mmHg 61%
    12:00 +21°C° 0 mm 6 m/s 742 mmHg 58%
    13:00 +21°C° 0 mm 6 m/s 742 mmHg 55%
    14:00 +22°C° 0 mm 6 m/s 741 mmHg 52%
    15:00 +22°C° 0.1 mm 5 m/s 741 mmHg 55%
    16:00 +21°C° 0.1 mm 4 m/s 741 mmHg 59%
    17:00 +21°C° 0.1 mm 3 m/s 741 mmHg 62%
    18:00 +19°C° 0.1 mm 3 m/s 741 mmHg 66%
    19:00 +18°C° 0.1 mm 2 m/s 741 mmHg 71%
    20:00 +16°C° 0.1 mm 2 m/s 741 mmHg 76%
    21:00 +16°C° 0.1 mm 2 m/s 741 mmHg 76%
    22:00 +16°C° 0.1 mm 2 m/s 741 mmHg 77%
    23:00 +15°C° 0.1 mm 2 m/s 741 mmHg 78%
    Voir plus